Flag Weather past 2 weeks in King's Lynn, England, United Kingdom

Now
30 °F

Fog.


Feels Like: 30 °F
Forecast: 36 / 48 °F
Wind: 1 mph from South

Location: Marham

Current Time: Nov 25, 2014 at 1:47:08 AM

Latest Report: Nov 25, 2014 at 12:50 AM


Visibility: 0 mi

Pressure: 30.33 "Hg

Humidity: 93%

Dew point: 28 °F

Location of King's LynnLocation

Historic Weather in King's Lynn — Graph

°F

King's Lynn temperature yesterday

Maximum temperature yesterday: 46 °F (at 2:50 PM)
Minimum temperature yesterday: 30 °F (at 6:50 AM)
Average temperature yesterday: 36 °F

Past Weeks' High & Low Weather Summary

 TemperatureHumidityPressure
High55 °F (Nov 11, 11:50 AM)100% (Nov 10, 4:50 AM)30.33 "Hg (Nov 10, 4:50 AM)
Low30 °F (Nov 24, 6:50 AM)71% (Nov 21, 1:50 PM)29.33 "Hg (Nov 12, 2:50 AM)
Average47 °F91%29.79 "Hg
* Reported Nov 9 11:50 PM — Nov 24 11:50 PM, King's Lynn, Weather by CustomWeather, © 2014

Note: Actual official high and low records may vary slightly from our data, if they occured in-between our weather recording intervals... More about our weather records

Advertising

King's Lynn weather history for previous 24 hours

 ConditionsComfort  
Time TempWeatherWind HumidityBarometerVisibility
11:50 PM
Nov 24
30 °FIce fog.2 mph93%30.33 "Hg0 mi
10:50 PM32 °FIce fog.3 mph100%30.33 "Hg0 mi
9:50 PM30 °FIce fog.1 mph100%30.33 "Hg0 mi
8:50 PM30 °FIce fog.1 mph100%30.33 "Hg1 mi
7:50 PM36 °FFog.3 mph93%30.33 "Hg1 mi
6:50 PM36 °FFog.3 mph100%30.33 "Hg1 mi
5:56 PM36 °FFog.2 mph100%30.33 "Hg1 mi
4:50 PM39 °FFog.2 mph100%30.30 "Hg3 mi
3:50 PM43 °FSunny.2 mph93%30.30 "Hg10 mi
2:50 PM46 °FSunny.3 mph82%30.30 "Hg10 mi
1:50 PM45 °FSunny.6 mph87%30.30 "Hg10 mi
12:50 PM43 °FSunny.7 mph87%30.33 "Hg10 mi
11:50 AM41 °FSunny.6 mph87%30.30 "Hg10 mi
10:50 AM37 °FSunny.5 mph93%30.30 "Hg10 mi
9:50 AM36 °FFog.5 mph93%30.30 "Hg5 mi
8:50 AM34 °FHaze.2 mph81%30.27 "Hg4 mi
7:50 AM32 °FFog.2 mph100%30.27 "HgN/A
6:50 AM30 °FFog.2 mph100%30.24 "HgN/A
5:50 AM34 °FClear.3 mph93%30.21 "Hg10 mi
4:50 AM36 °FClear.2 mph93%30.21 "Hg10 mi
3:50 AM34 °FChilly.2 mph93%30.21 "HgN/A
2:50 AM34 °FChilly.2 mph100%30.18 "HgN/A
1:50 AM36 °FChilly.1 mph93%30.18 "HgN/A
Weather by CustomWeather, © 2014

See weather overviewHow to use our weather pages